Location: Melbourne
(37.8666°S, 145.1333°E)
Time: 02:05:00
(UTC+11:00)

Amateur Radio Satellites - All Passes

Search period start: 17 December 2017 01:35
Search period end: 18 December 2017 01:35
Location: Melbourne, 37.8666°S, 145.1333°E

Satellite Date Start Highest point End Downlink Frequencies (MHz)
Time Altitude Azimuth
NANOSAT C BR1 17 Dec 01:47:07 01:49:43 16° 273° (W) 01:52:20 145.865
Gurwin Techsat 1B 17 Dec 01:50:22 01:55:25 45° 109° (ESE) 02:00:32 435.225
BUGSAT 1 17 Dec 01:51:01 01:55:12 68° 282° (WNW) 01:59:31 437.445
AO-7 17 Dec 01:53:37 01:58:16 16° 130° (SE) 02:02:53 .
ISS 17 Dec 02:08:34 02:09:51 12° 197° (SSW) 02:11:08 437.550
VELOX 1 17 Dec 02:12:50 02:17:22 89° 87° (E) 02:21:52 145.980
ESTCUBE 1 17 Dec 02:27:14 02:27:59 10° 242° (WSW) 02:28:45 437.505/2401.250
YUBILEINY 17 Dec 02:31:22 02:39:34 41° 105° (ESE) 02:47:41 435.215
Oscar 19 17 Dec 02:33:34 02:38:37 50° 280° (W) 02:43:43 437.125/150
SO-50 17 Dec 02:38:50 02:39:12 10° 74° (ENE) 02:39:33 436.795
SPROUT 17 Dec 02:40:16 02:43:51 25° 249° (WSW) 02:47:25 437.525
UKube-1 17 Dec 02:43:52 02:47:21 23° 85° (E) 02:50:48 .
AO-91 17 Dec 02:44:19 02:47:50 32° 275° (W) 02:51:45 145.960
RS-15 17 Dec 02:45:58 02:56:09 48° 70° (ENE) 03:06:24 29.354- 29.394
NO-84 17 Dec 02:54:03 02:57:20 57° 311° (NW) 03:00:20 435.350 FM
DX 1 17 Dec 03:02:48 03:07:13 64° 79° (ENE) 03:11:35 434.975-435.025
50 SAT 17 Dec 03:15:33 03:18:48 66° 256° (WSW) 03:21:59 437.505
Gurwin Techsat 1B 17 Dec 03:31:35 03:35:32 21° 274° (W) 03:39:31 435.225
AO-7 17 Dec 03:41:16 03:49:36 75° 111° (ESE) 03:58:00 .
ITAMSAT 1 17 Dec 03:49:40 03:54:38 46° 109° (ESE) 03:59:40 435.822/435.867
ITUPSAT 1 17 Dec 03:56:24 04:00:01 21° 86° (E) 04:03:36 437.325
DOVE 4 17 Dec 04:13:52 04:15:07 11° 117° (ESE) 04:16:24 437.250
SO-50 17 Dec 04:14:08 04:18:58 83° 238° (WSW) 04:23:48 436.795
M-CUBED/EXP-1 PRIME 17 Dec 04:15:33 04:19:00 47° 285° (WNW) 04:22:20 437.505
CUBESAT XI-V 17 Dec 04:19:14 04:21:10 12° 89° (E) 04:23:05 437.345
UKube-1 17 Dec 04:19:32 04:23:19 29° 249° (WSW) 04:27:05 .
MOZHAYETS 4 17 Dec 04:25:45 04:30:24 68° 79° (ENE) 04:34:58
YUBILEINY 17 Dec 04:28:16 04:36:15 41° 267° (W) 04:44:14 435.215
nSIGHT-1 17 Dec 04:34:57 04:35:49 11° 164° (SSE) 04:36:40 .
DX 1 17 Dec 04:41:15 04:42:48 12° 243° (WSW) 04:44:21 434.975-435.025
RS-15 17 Dec 04:58:02 05:08:25 48° 229° (SW) 05:19:03 29.354- 29.394
BEESAT 17 Dec 05:03:26 05:08:18 76° 255° (WSW) 05:13:05 436.000
ISS 17 Dec 05:23:03 05:25:16 16° 156° (SSE) 05:27:30 437.550
LilacSat-2 17 Dec 05:27:22 05:28:40 11° 114° (ESE) 05:29:58 437.200
ITAMSAT 1 17 Dec 05:30:34 05:34:17 20° 273° (W) 05:38:03 435.822/435.867
CUTE-I 17 Dec 05:31:36 05:34:45 16° 118° (ESE) 05:37:54 437.470
ITUPSAT 1 17 Dec 05:33:26 05:37:56 38° 250° (WSW) 05:42:21 437.325
AO-7 17 Dec 05:36:59 05:43:00 22° 274° (W) 05:49:05 .
XW-2D 17 Dec 05:37:58 05:40:09 15° 113° (ESE) 05:42:20 145.860 - 145.880
KAITUO 1B 17 Dec 05:42:17 05:43:13 11° 114° (ESE) 05:44:09 145.475/437.950
DOVE 4 17 Dec 05:48:03 05:52:11 60° 280° (W) 05:56:32 437.250
XW-2B 17 Dec 05:53:05 05:56:00 21° 110° (ESE) 05:58:57 145.730 - 145.750
CUBESAT XI-V 17 Dec 05:54:17 05:58:52 58° 254° (WSW) 06:03:25 437.345
SO-50 17 Dec 05:58:06 06:00:10 12° 221° (SW) 06:02:14 436.795
KKS-1 17 Dec 06:01:22 06:05:19 29° 83° (E) 06:09:13 437.445
XW-2F 17 Dec 06:03:01 06:06:14 26° 109° (ESE) 06:09:26 145.980 - 146.000
MOZHAYETS 4 17 Dec 06:05:16 06:06:55 12° 243° (WSW) 06:08:32
HO-68 17 Dec 06:06:42 06:11:59 23° 121° (ESE) 06:17:16 435.675
nSIGHT-1 17 Dec 06:09:36 06:12:43 42° 145° (SE) 06:15:48 .
XW-2C 17 Dec 06:19:44 06:23:25 46° 106° (ESE) 06:27:07 145.795 - 145.815
STARS 17 Dec 06:38:34 06:42:27 28° 84° (E) 06:46:18 437.465
O/OREOS (USA 219) 17 Dec 06:42:58 06:47:22 40° 116° (ESE) 06:51:45 437.305
LilacSat-2 17 Dec 06:58:45 07:02:28 47° 279° (W) 07:06:14 437.200
ISS 17 Dec 06:58:47 07:02:07 80° 317° (NW) 07:05:25 437.550
NUDT-PHONESAT 17 Dec 07:05:30 07:09:12 65° 281° (W) 07:12:57 437.300
UWE-3 17 Dec 07:07:05 07:09:54 16° 115° (ESE) 07:12:46 435.000/436.395/437.385
CUTE-I 17 Dec 07:08:54 07:14:11 65° 282° (WNW) 07:19:34 437.470
CUBEBUG 2 17 Dec 07:10:12 07:14:17 30° 110° (ESE) 07:18:27 437.445
SEEDS 17 Dec 07:10:25 07:13:55 26° 110° (ESE) 07:17:28 437.485
XW-2D 17 Dec 07:10:28 07:13:59 35° 278° (W) 07:17:32 145.860 - 145.880
PCSat 17 Dec 07:12:06 07:17:27 67° 66° (ENE) 07:22:52 145.827
KAITUO 1B 17 Dec 07:13:05 07:16:43 47° 279° (W) 07:20:23 145.475/437.950
RS-15 17 Dec 07:17:37 07:24:35 18° 197° (SSW) 07:31:43 29.354- 29.394
AAUSAT CUBESAT 2 17 Dec 07:24:02 07:26:32 16° 113° (ESE) 07:29:02 437.432
XW-2B 17 Dec 07:26:55 07:30:02 23° 275° (W) 07:33:09 145.730 - 145.750
ZACube-1 17 Dec 07:28:03 07:30:21 14° 116° (ESE) 07:32:39 437.345
BEESAT 3 17 Dec 07:35:06 07:36:53 13° 71° (ENE) 07:38:39 437.485
CUTE 1.7 + AOD 2 17 Dec 07:36:39 07:40:54 88° 286° (WNW) 07:45:13 437.475
XW-2F 17 Dec 07:37:34 07:40:17 18° 274° (W) 07:43:00 145.980 - 146.000
KKS-1 17 Dec 07:38:00 07:41:43 25° 248° (WSW) 07:45:23 437.445
Oscar 11 17 Dec 07:45:23 07:46:21 11° 117° (ESE) 07:47:18 .
nSIGHT-1 17 Dec 07:46:29 07:48:40 17° 310° (NW) 07:50:50 .
HO-68 17 Dec 07:51:53 07:59:00 69° 284° (WNW) 08:06:14 435.675
XW-2C 17 Dec 07:57:04 07:57:49 10° 271° (W) 07:58:33 145.795 - 145.815
AO-73 17 Dec 07:58:59 08:02:46 25° 111° (ESE) 08:06:32 145.935
STARS 17 Dec 08:14:59 08:18:39 25° 248° (WSW) 08:22:16 437.465
BEESAT 2 17 Dec 08:21:07 08:22:04 11° 72° (ENE) 08:23:02 435.950
O/OREOS (USA 219) 17 Dec 08:23:18 08:26:25 18° 280° (W) 08:29:31 437.305
XW-2A 17 Dec 08:40:41 08:44:02 52° 280° (W) 08:47:26 145.665 - 145.685
UWE-3 17 Dec 08:41:19 08:45:52 51° 279° (W) 08:50:31 435.000/436.395/437.385
STRAND 1 17 Dec 08:44:10 08:49:24 70° 78° (ENE) 08:54:33 437.568
SEEDS 17 Dec 08:46:11 08:49:32 23° 275° (W) 08:52:55 437.485
CUBEBUG 2 17 Dec 08:46:52 08:50:49 26° 274° (W) 08:54:51 437.445
PCSat 17 Dec 08:57:36 09:01:21 19° 228° (SW) 09:05:07 145.827
AAUSAT CUBESAT 2 17 Dec 08:57:44 09:01:37 39° 278° (W) 09:05:32 437.432
ZACube-1 17 Dec 09:01:32 09:06:05 59° 280° (W) 09:10:41 437.345
BEESAT 3 17 Dec 09:10:22 09:13:59 42° 235° (SW) 09:17:38 437.485
Oscar 11 17 Dec 09:17:30 09:21:51 68° 281° (W) 09:26:15 .
Max Valier Satellite 17 Dec 09:23:30 09:25:43 15° 112° (ESE) 09:27:56 145.860
AO-85 17 Dec 09:27:31 09:31:38 23° 70° (ENE) 09:35:42 145.980
AO-73 17 Dec 09:34:49 09:38:49 29° 276° (W) 09:42:52 145.935
RS-15 17 Dec 09:35:49 09:43:20 19° 159° (SSE) 09:51:03 29.354- 29.394
FO-29 17 Dec 09:37:52 09:44:12 68° 78° (ENE) 09:51:19 435.910
DELFI C3 17 Dec 09:39:05 09:42:42 36° 108° (ESE) 09:46:21 145.870
EO-88 17 Dec 09:45:50 09:48:27 19° 111° (ESE) 09:51:05 145.990 - 145.960
BEESAT 2 17 Dec 09:55:31 09:59:17 52° 237° (WSW) 10:03:04 435.950
FALCONSAT 3 17 Dec 10:04:10 10:07:10 23° 23° (NNE) 10:10:11 435.103
TIGRISAT 17 Dec 10:23:35 10:27:21 24° 86° (E) 10:31:01 435.000
STRAND 1 17 Dec 10:25:15 10:27:55 14° 242° (WSW) 10:30:34 437.568
UNISAT 6 17 Dec 10:27:16 10:31:19 29° 84° (E) 10:35:15 437.425
Max Valier Satellite 17 Dec 10:55:48 10:59:13 32° 277° (W) 11:02:39 145.860
AO-85 17 Dec 11:06:38 11:11:49 48° 235° (SW) 11:16:50 145.980
DELFI C3 17 Dec 11:15:21 11:17:32 14° 273° (W) 11:19:46 145.870
EO-88 17 Dec 11:18:50 11:21:53 24° 276° (W) 11:24:58 145.990 - 145.960
FO-29 17 Dec 11:24:23 11:28:48 20° 244° (WSW) 11:33:33 435.910
LO-87 17 Dec 11:41:14 11:44:50 65° 104° (ESE) 11:48:31 145.935 - 145.965
FALCONSAT 3 17 Dec 11:42:17 11:45:54 53° 8° (N) 11:49:33 435.103
ESTCUBE 1 17 Dec 11:44:37 11:49:02 53° 106° (ESE) 11:53:29 437.505/2401.250
RS-15 17 Dec 11:48:13 11:59:20 52° 130° (SE) 12:10:54 29.354- 29.394
SPROUT 17 Dec 11:56:35 11:59:17 16° 114° (ESE) 12:02:00 437.525
TIGRISAT 17 Dec 11:59:57 12:03:59 30° 249° (WSW) 12:07:54 435.000
PRISM 17 Dec 12:00:00 12:04:13 87° 78° (ENE) 12:08:24 437.425
UNISAT 6 17 Dec 12:04:05 12:07:52 25° 248° (WSW) 12:11:32 437.425
AIST 2D 17 Dec 12:07:15 12:10:32 35° 82° (E) 12:13:46 435.315
EO-79 17 Dec 12:14:07 12:16:17 13° 88° (E) 12:18:24 145.935-145.965
POLYITAN 1 17 Dec 12:36:36 12:40:10 25° 85° (E) 12:43:40 437.675
SO-50 17 Dec 12:47:23 12:51:57 53° 125° (SE) 12:56:23 436.795
QB50P2 17 Dec 13:01:57 13:06:13 56° 80° (E) 13:10:24 145.880/145.840
DUCHIFAT 1 17 Dec 13:03:24 13:07:25 38° 82° (E) 13:11:22 145.980
VELOX 1 17 Dec 13:07:50 13:12:10 61° 106° (ESE) 13:16:35 145.980
FALCONSAT 3 17 Dec 13:21:11 13:24:51 54° 353° (N) 13:28:29 435.103
ESTCUBE 1 17 Dec 13:24:02 13:26:07 13° 271° (W) 13:28:13 437.505/2401.250
SPROUT 17 Dec 13:30:43 13:34:47 41° 278° (W) 13:38:56 437.525
NANOSAT C BR1 17 Dec 13:31:00 13:35:20 84° 253° (WSW) 13:39:35 145.865
BUGSAT 1 17 Dec 13:35:19 13:38:26 20° 86° (E) 13:41:30 437.445
UKube-1 17 Dec 13:37:11 13:39:52 16° 115° (ESE) 13:42:35 .
50 SAT 17 Dec 13:39:56 13:42:27 22° 109° (ESE) 13:44:58 437.505
AIST 2D 17 Dec 13:41:54 13:43:19 12° 247° (WSW) 13:44:44 435.315
EO-79 17 Dec 13:48:06 13:52:15 46° 253° (WSW) 13:56:20 145.935-145.965
DX 1 17 Dec 13:56:17 14:00:24 43° 108° (ESE) 14:04:34 434.975-435.025
RS-15 17 Dec 14:00:51 14:11:38 47° 289° (WNW) 14:22:51 29.354- 29.394
Gurwin Techsat 1B 17 Dec 14:09:09 14:13:06 21° 86° (E) 14:17:01 435.225
POLYITAN 1 17 Dec 14:12:15 14:15:50 25° 249° (WSW) 14:19:20 437.675
SO-50 17 Dec 14:29:18 14:31:55 15° 288° (WNW) 14:34:30 436.795
BEESAT 17 Dec 14:34:09 14:35:22 11° 119° (ESE) 14:36:36 436.000
AO-91 17 Dec 14:34:21 14:39:44 59° 80° (E) 14:45:03 145.960
QB50P2 17 Dec 14:39:41 14:41:28 12° 244° (WSW) 14:43:14 145.880/145.840
DUCHIFAT 1 17 Dec 14:39:57 14:42:44 17° 246° (WSW) 14:45:29 145.980
Oscar 19 17 Dec 14:46:45 14:51:56 66° 78° (ENE) 14:57:02 437.125/150
VELOX 1 17 Dec 14:47:58 14:48:58 11° 271° (W) 14:50:00 145.980
FALCONSAT 3 17 Dec 15:00:31 15:03:36 24° 338° (NNW) 15:06:39 435.103
ITUPSAT 1 17 Dec 15:01:28 15:05:03 21° 114° (ESE) 15:08:40 437.325
BUGSAT 1 17 Dec 15:10:01 15:13:48 31° 250° (WSW) 15:17:30 437.445
UKube-1 17 Dec 15:11:25 15:15:30 42° 279° (W) 15:19:40 .
50 SAT 17 Dec 15:12:25 15:14:19 15° 274° (W) 15:16:14 437.505
CUBESAT XI-V 17 Dec 15:21:57 15:23:09 11° 118° (ESE) 15:24:21 437.345
MOZHAYETS 4 17 Dec 15:25:22 15:29:54 52° 106° (ESE) 15:34:29
YUBILEINY 17 Dec 15:29:47 15:38:03 50° 91° (E) 15:46:22 435.215
DX 1 17 Dec 15:34:12 15:36:46 15° 273° (W) 15:39:19 434.975-435.025
AO-7 17 Dec 15:45:57 15:52:42 27° 84° (E) 15:59:22 .
Gurwin Techsat 1B 17 Dec 15:48:06 15:53:14 46° 251° (WSW) 15:58:19 435.225
JUGNU 17 Dec 15:54:22 15:55:43 11° 10° (N) 15:57:04 437.505
PCSat 17 Dec 16:01:54 16:06:57 37° 125° (SE) 16:11:57 145.827
ITAMSAT 1 17 Dec 16:05:14 16:08:55 19° 87° (E) 16:12:35 435.822/435.867
BEESAT 17 Dec 16:07:35 16:12:24 81° 284° (WNW) 16:17:17 436.000
AO-91 17 Dec 16:11:58 16:15:37 19° 245° (WSW) 16:19:17 145.960
Oscar 19 17 Dec 16:27:51 16:30:38 15° 242° (WSW) 16:33:25 437.125/150
ITUPSAT 1 17 Dec 16:38:01 16:42:33 40° 279° (W) 16:47:09 437.325
CUBESAT XI-V 17 Dec 16:55:11 16:59:50 75° 283° (WNW) 17:04:32 437.345
KKS-1 17 Dec 16:57:54 17:01:19 22° 113° (ESE) 17:04:47 437.445
MOZHAYETS 4 17 Dec 17:04:50 17:07:19 14° 271° (W) 17:09:49
YUBILEINY 17 Dec 17:27:23 17:35:02 34° 252° (WSW) 17:42:47 435.215
BEESAT 3 17 Dec 17:27:59 17:31:50 54° 123° (ESE) 17:35:39 437.485
M-CUBED/EXP-1 PRIME 17 Dec 17:28:31 17:31:59 52° 250° (WSW) 17:35:39 437.505
STARS 17 Dec 17:33:40 17:36:58 21° 113° (ESE) 17:40:18 437.465
AO-7 17 Dec 17:37:40 17:45:53 63° 247° (WSW) 17:54:02 .
JUGNU 17 Dec 17:41:09 17:43:51 13° 359° (N) 17:46:33 437.505
ITAMSAT 1 17 Dec 17:43:30 17:48:36 49° 251° (WSW) 17:53:39 435.822/435.867
PCSat 17 Dec 17:45:33 17:50:10 29° 288° (WNW) 17:54:46 145.827
DOVE 4 17 Dec 17:47:34 17:52:26 43° 82° (E) 17:57:26 437.250
AO-85 17 Dec 18:01:58 18:03:41 12° 140° (SE) 18:05:23 145.980
NO-84 17 Dec 18:05:48 18:09:43 37° 51° (NE) 18:13:31 435.350 FM
BEESAT 2 17 Dec 18:14:18 18:18:04 45° 124° (SE) 18:21:50 435.950
KKS-1 17 Dec 18:33:40 18:37:39 32° 278° (W) 18:41:42 437.445
LilacSat-2 17 Dec 18:34:12 18:37:01 19° 86° (E) 18:39:48 437.200
NUDT-PHONESAT 17 Dec 18:38:45 18:40:26 13° 88° (E) 18:42:06 437.300
XW-2D 17 Dec 18:44:37 18:47:47 25° 84° (E) 18:50:55 145.860 - 145.880
KAITUO 1B 17 Dec 18:46:27 18:49:00 17° 86° (E) 18:51:31 145.475/437.950
XW-2B 17 Dec 19:00:17 19:03:50 37° 82° (E) 19:07:22 145.730 - 145.750
BEESAT 3 17 Dec 19:07:54 19:08:50 11° 288° (WNW) 19:09:46 437.485
STARS 17 Dec 19:09:03 19:13:03 33° 277° (W) 19:17:06 437.465
XW-2F 17 Dec 19:09:53 19:13:34 47° 81° (E) 19:17:11 145.980 - 146.000
HO-68 17 Dec 19:22:20 19:28:14 26° 85° (E) 19:34:04 435.675
CUTE 1.7 + AOD 2 17 Dec 19:24:10 19:27:07 18° 87° (E) 19:30:02 437.475
DOVE 4 17 Dec 19:25:56 19:29:48 22° 248° (WSW) 19:33:43 437.250
XW-2C 17 Dec 19:27:39 19:31:29 89° 258° (WSW) 19:35:16 145.795 - 145.815
CUTE-I 17 Dec 19:27:40 19:33:03 60° 79° (E) 19:38:22 437.470
AO-7 17 Dec 19:33:34 19:36:58 13° 228° (SW) 19:40:24 .
AO-85 17 Dec 19:40:25 19:44:50 84° 297° (WNW) 19:48:54 145.980
NO-84 17 Dec 19:43:22 19:47:04 29° 217° (SW) 19:50:37 435.350 FM
FO-29 17 Dec 19:51:08 19:54:46 19° 116° (ESE) 19:58:27 435.910
BEESAT 2 17 Dec 19:53:34 19:55:21 13° 289° (WNW) 19:57:08 435.950
STRAND 1 17 Dec 19:58:01 20:03:10 82° 104° (ESE) 20:08:24 437.568
LilacSat-2 17 Dec 20:08:03 20:11:14 25° 251° (WSW) 20:14:22 437.200
NUDT-PHONESAT 17 Dec 20:10:58 20:14:23 35° 253° (WSW) 20:17:46 437.300
XW-2D 17 Dec 20:18:59 20:21:47 20° 249° (WSW) 20:24:32 145.860 - 145.880
KAITUO 1B 17 Dec 20:19:46 20:22:57 26° 251° (WSW) 20:26:07 145.475/437.950
SRMSAT 17 Dec 20:21:51 20:24:26 13° 1° (N) 20:27:02 437.500
SEEDS 17 Dec 20:30:27 20:34:40 65° 79° (E) 20:38:51 437.485
UWE-3 17 Dec 20:33:00 20:37:12 37° 83° (E) 20:41:14 435.000/436.395/437.385
XW-2B 17 Dec 20:35:43 20:37:39 14° 247° (WSW) 20:39:33 145.730 - 145.750
CUBEBUG 2 17 Dec 20:38:41 20:43:23 81° 76° (ENE) 20:47:51 437.445
AAUSAT CUBESAT 2 17 Dec 20:41:14 20:45:04 34° 83° (E) 20:48:52 437.432
XW-2F 17 Dec 20:46:10 20:47:12 11° 246° (WSW) 20:48:13 145.980 - 146.000
ZACube-1 17 Dec 20:52:06 20:55:58 30° 84° (E) 20:59:44 437.345
O/OREOS (USA 219) 17 Dec 20:53:07 20:57:35 66° 72° (ENE) 21:02:07 437.305
CUTE 1.7 + AOD 2 17 Dec 20:59:08 21:02:59 34° 251° (WSW) 21:06:49 437.475
Oscar 11 17 Dec 21:06:57 21:10:33 25° 85° (E) 21:14:06 .
CUTE-I 17 Dec 21:09:04 21:12:33 18° 243° (WSW) 21:16:01 437.470
HO-68 17 Dec 21:09:11 21:16:14 55° 249° (WSW) 21:23:13 435.675
TIGRISAT 17 Dec 21:20:36 21:23:51 19° 114° (ESE) 21:27:09 435.000
AO-73 17 Dec 21:23:59 21:28:20 63° 79° (E) 21:32:31 145.935
UNISAT 6 17 Dec 21:24:14 21:27:50 22° 113° (ESE) 21:31:30 437.425
FO-29 17 Dec 21:34:30 21:39:33 45° 279° (W) 21:44:35 435.910
XW-2A 17 Dec 21:36:23 21:39:33 37° 254° (WSW) 21:42:40 145.665 - 145.685
STRAND 1 17 Dec 21:42:24 21:42:55 10° 269° (W) 21:43:26 437.568
SEEDS 17 Dec 22:09:05 22:09:45 10° 244° (WSW) 22:10:25 437.485
UWE-3 17 Dec 22:10:10 22:13:19 19° 247° (WSW) 22:16:23 435.000/436.395/437.385
SRMSAT 17 Dec 22:11:31 22:12:42 11° 351° (N) 22:13:55 437.500
AAUSAT CUBESAT 2 17 Dec 22:17:22 22:20:13 18° 248° (WSW) 22:23:04 437.432
Max Valier Satellite 17 Dec 22:27:22 22:30:24 23° 85° (E) 22:33:23 145.860
ZACube-1 17 Dec 22:28:42 22:32:02 21° 248° (WSW) 22:35:18 437.345
O/OREOS (USA 219) 17 Dec 22:35:32 22:37:28 12° 234° (SW) 22:39:26 437.305
AIST 2D 17 Dec 22:41:51 22:42:35 11° 114° (ESE) 22:43:20 435.315
Oscar 11 17 Dec 22:42:58 22:46:35 26° 250° (WSW) 22:50:11 .
nSIGHT-1 17 Dec 22:45:23 22:48:14 30° 47° (NE) 22:51:08 .
PRISM 17 Dec 22:47:03 22:50:57 45° 107° (ESE) 22:54:56 437.425
EO-88 17 Dec 22:48:30 22:51:45 28° 83° (E) 22:54:57 145.990 - 145.960
DELFI C3 17 Dec 22:51:33 22:55:36 78° 78° (ENE) 22:59:36 145.870
TIGRISAT 17 Dec 22:55:42 23:00:08 43° 278° (W) 23:04:42 435.000
UNISAT 6 17 Dec 23:00:00 23:04:16 35° 277° (W) 23:08:39 437.425
AO-73 17 Dec 23:02:41 23:03:56 11° 243° (WSW) 23:05:10 145.935
POLYITAN 1 17 Dec 23:27:59 23:30:37 16° 114° (ESE) 23:33:17 437.675
ISS 17 Dec 23:37:07 23:40:26 86° 41° (NE) 23:43:46 437.550
ESTCUBE 1 17 Dec 23:40:36 23:42:41 13° 89° (E) 23:44:45 437.505/2401.250
QB50P2 17 Dec 23:52:30 23:56:21 33° 109° (ESE) 00:00:16 145.880/145.840
DUCHIFAT 1 17 Dec 23:53:28 23:56:50 23° 112° (ESE) 00:00:15 145.980
Max Valier Satellite 18 Dec 00:01:19 00:04:03 19° 249° (WSW) 00:06:45 145.860
AIST 2D 18 Dec 00:11:57 00:15:19 41° 279° (W) 00:18:43 435.315
NANOSAT C BR1 18 Dec 00:20:38 00:24:49 54° 106° (ESE) 00:29:03 145.865
nSIGHT-1 18 Dec 00:21:38 00:24:26 26° 210° (SSW) 00:27:16 .
EO-88 18 Dec 00:22:48 00:25:07 16° 248° (WSW) 00:27:24 145.990 - 145.960
BUGSAT 1 18 Dec 00:24:32 00:26:09 12° 116° (ESE) 00:27:46 437.445
PRISM 18 Dec 00:24:43 00:26:27 12° 272° (W) 00:28:12 437.425
EO-79 18 Dec 00:37:48 00:42:06 82° 283° (WNW) 00:46:29 145.935-145.965
NO-84 18 Dec 00:41:34 00:43:17 13° 154° (SSE) 00:44:55 435.350 FM
LO-87 18 Dec 00:42:47 00:46:29 76° 257° (WSW) 00:50:06 145.935 - 145.965
VELOX 1 18 Dec 01:01:10 01:03:23 13° 88° (E) 01:05:35 145.980
POLYITAN 1 18 Dec 01:01:54 01:06:00 42° 279° (W) 01:10:11 437.675
ISS 18 Dec 01:15:09 01:17:18 16° 203° (SSW) 01:19:27 437.550
ESTCUBE 1 18 Dec 01:15:20 01:19:46 53° 254° (WSW) 01:24:10 437.505/2401.250
SPROUT 18 Dec 01:17:52 01:21:54 36° 82° (E) 01:25:52 437.525
